Вернуться в каталог

DELTA 1 DEB

АктивенSSO
NORAD 40768·DEBRIS·🇺🇸 United States

Запущен Jul 29, 1976 с Vandenberg Space Force Base

Loading…

Ближайшие Пролёты (ближайшие 24 часа)

TLE

СвежийSource: Space-Track

Эпоха: Sep 13, 2026, 04:41 UTC

1 40768U 76077GM  26256.19572605  .00000303  00000-0  18803-2 0  9996
2 40768 101.4088 235.3749 0046813 218.8282 140.9430 12.64266841590178

Отслеживайте DELTA 1 DEB в реальном времени с AllMySat

Download on the App Store